TimeEET,TemperatureF,Dew PointF,Humidity,Sea Level PressureIn,VisibilityMPH,Wind Direction,Wind SpeedMPH,Gust SpeedMPH,PrecipitationIn,Events,Conditions,WindDirDegrees,DateUTC
12:00 AM,51.8,48.2,88,30.15,-9999.0,NW,5.8,-,N/A,,Clear,310,2013-01-14 22:00:00
1:00 AM,50.0,48.2,94,30.15,-9999.0,WNW,5.8,-,N/A,,Clear,290,2013-01-14 23:00:00
2:00 AM,47,43,82,30.18,6,NW,3.5,,,,,310,2013-01-15 00:00:00
2:00 AM,48.2,42.8,82,30.15,-9999.0,NW,3.5,-,N/A,,Clear,310,2013-01-15 00:00:00
3:00 AM,48.2,42.8,82,30.15,-9999.0,WNW,4.6,-,N/A,,Clear,300,2013-01-15 01:00:00
4:00 AM,46.4,42.8,87,30.15,-9999.0,NW,3.5,-,N/A,,Clear,320,2013-01-15 02:00:00
5:00 AM,42.8,39.2,87,30.15,-9999.0,NW,1.2,-,N/A,,Clear,310,2013-01-15 03:00:00
6:00 AM,41.0,39.2,93,30.15,-9999.0,WNW,2.3,-,N/A,,Clear,300,2013-01-15 04:00:00
7:00 AM,41.0,39.2,93,30.18,-9999.0,NW,3.5,-,N/A,,Clear,310,2013-01-15 05:00:00
8:00 AM,41,38,83,30.23,6,SW,2.3,,,,,230,2013-01-15 06:00:00
8:00 AM,41.0,37.4,87,30.18,-9999.0,SW,2.3,-,N/A,,Clear,230,2013-01-15 06:00:00
9:00 AM,48.2,42.8,82,30.18,-9999.0,WNW,2.3,-,N/A,,Clear,290,2013-01-15 07:00:00
10:00 AM,53.6,41.0,62,30.21,-9999.0,WNW,2.3,-,N/A,,Clear,300,2013-01-15 08:00:00
11:00 AM,59.0,42.8,55,30.18,-9999.0,West,3.5,-,N/A,,Clear,270,2013-01-15 09:00:00
12:00 PM,60.8,42.8,52,30.15,-9999.0,West,3.5,-,N/A,,Clear,280,2013-01-15 10:00:00
1:00 PM,55.4,42.8,63,30.12,-9999.0,NNW,2.3,-,N/A,,Clear,340,2013-01-15 11:00:00
2:00 PM,71.6,42.8,35,30.09,-9999.0,West,3.5,-,N/A,,Clear,270,2013-01-15 12:00:00
3:00 PM,75.2,41.0,29,30.12,-9999.0,West,3.5,-,N/A,,Clear,270,2013-01-15 13:00:00
4:00 PM,75.2,41.0,29,30.12,-9999.0,NW,3.5,-,N/A,,Clear,310,2013-01-15 14:00:00
5:00 PM,71.6,42.8,35,30.12,-9999.0,North,5.8,-,N/A,,Clear,350,2013-01-15 15:00:00
6:00 PM,66.2,42.8,43,30.12,-9999.0,North,3.5,-,N/A,,Clear,10,2013-01-15 16:00:00
7:00 PM,60.8,44.6,55,30.15,-9999.0,NW,2.3,-,N/A,,Clear,310,2013-01-15 17:00:00
8:00 PM,59.0,46.4,63,30.15,-9999.0,NW,2.3,-,N/A,,Clear,320,2013-01-15 18:00:00
9:00 PM,55.4,46.4,72,30.15,-9999.0,NNW,2.3,-,N/A,,Clear,330,2013-01-15 19:00:00
10:00 PM,53.6,44.6,72,30.15,-9999.0,NW,2.3,-,N/A,,Clear,310,2013-01-15 20:00:00
11:00 PM,50.0,41.0,71,30.12,-9999.0,Calm,Calm,-,N/A,,Clear,0,2013-01-15 21:00:00